Regional Weather Roundup
Issued by NWS Sioux Falls, SD

Home | Current Version | Previous Version | Text Only | Print | Product List | Glossary On
Versions: 1 2 3 4 5 6 7 8 9 10 11 12 13 14 15 16 17 18 19 20 21 22 23 24 25 26 27 28 29 30 31 32 33 34 35 36 37 38 39 40 41 42 43 44 45 46 47 48 49 50
000
ASUS43 KFSD 231910
RWRFSD

WEATHER ROUNDUP FOR SE SOUTH DAKOTA/SW MINNESOTA/NW IOWA
NATIONAL WEATHER SERVICE SIOUX FALLS SD
100 PM CST THU FEB 23 2017

NOTE: "FAIR" INDICATES FEW OR NO CLOUDS BELOW 12,000 FEET WITH NO
SIGNIFICANT WEATHER AND OR OBSTRUCTIONS TO VISIBILITY.


SDZ038>040-050-052>070-232000-
SOUTHEAST SOUTH DAKOTA

CITY           SKY/WX    TMP DP  RH WIND       PRES   REMARKS
BROOKINGS      CLOUDY    30  23  75 NE17G23   29.87F WCI  18
CHAMBERLAIN    LGT SNOW  32  29  88 NE12      29.89F WCI  23
HURON          CLOUDY    32  24  72 NE17      29.92F WCI  21
MADISON        MOCLDY    28  28 100 NE16G22   29.87F WCI  17
MITCHELL       LGT SNOW  32  25  75 NE16      29.89F WCI  21
SIOUX FALLS    FLURRIES  32  27  81 NE18G25   29.85F WCI  20
WINNER         LGT SNOW  30  26  85 NE16      29.85F VSB 1   WCI  19
YANKTON        CLOUDY    34  27  75 N20G26    29.81F WCI  22
$$

MNZ071-072-080-081-089-090-097-098-232000-
SOUTHWEST MINNESOTA

CITY           SKY/WX    TMP DP  RH WIND       PRES   REMARKS
FAIRMONT       LGT RAIN  33  29  85 N17       29.84S WCI  22
JACKSON          N/A     32  28  86 N16G23    29.84F WCI  21
LUVERNE        FLURRIES  32  27  80 NE15G23   29.85F WCI  22
MARSHALL       CLOUDY    31  26  82 N14       29.93F WCI  21
MONTEVIDEO     CLOUDY    32  27  80 E8        29.97S WCI  25
PIPESTONE      CLOUDY    30  25  80 NE15G22   29.85F WCI  19
REDWOOD FALLS  CLOUDY    32  24  72 N10       29.92F WCI  24
TRACY          CLOUDY    32  28  86 N17       29.90F WCI  21
WINDOM         CLOUDY    32  27  80 N18       29.86F WCI  20
WORTHINGTON    LGT SNOW  30  26  85 N23       29.84F FOG     WCI  17
$$

IAZ001>003-012>014-020>022-031-032-NEZ013-014-SDZ071-232000-
NORTHWEST IOWA

CITY           SKY/WX    TMP DP  RH WIND       PRES   REMARKS
CHEROKEE       CLOUDY    35  32  88 NE14G25   29.76F WCI  26
DENISON        CLOUDY    37  34  87 NE20G30   29.67F
ESTHERVILLE    CLOUDY    32  30  92 N15       29.83F WCI  22
LE MARS        MIX PCPN  34  30  86 NE21G28   29.78F WCI  22
ORANGE CITY    CLOUDY    34  30  86 NE15G22   29.79F WCI  24
SHELDON        CLOUDY    32  32 100 NE24      29.79F WCI  19
SIOUX CITY     LGT RAIN  38  31  76 N18G28    29.75F
SPENCER        CLOUDY    34  30  85 NE21      29.81F WCI  22
STORM LAKE     MIX PCPN  34  32  93 NE28      29.72F WCI  20
$$

ABBREVIATIONS USED IN REMARKS
   TC - TEMPERATURE IN CELSIUS
  WCI - WIND CHILL INDEX
   HX - HEAT INDEX
  VSB - VISIBILITY





USA.gov is the U.S. government's official web portal to all federal, state and local government web resources and services.